Aérodrome :
LOGIN :

S'inscrire | Disclaimer

   EN    FR    IT 

 










Légende :    VFR   VFR Marginal   IFR   IFR Intensif   IFR Très Intensif
Visi : 
Plafond : 
>= 8 km
>= 3000ft
5 à 8 km
1000 à 3000 ft
1500m à 5 km
500 à 1000 ft
800 à 1500m
200 à 500 ft
< 800m
< 200 ft
Symboles :   Orages  Brouillard  Fortes neiges  Fortes précipitations  Vent > 20 kt
SIGMETs :   Divers  Orages  Givrage  Turbulence  Onde Orograph.  Cendres Volcan.







- Altitude de l'aérodrome : 313 ft
- Voir les cartes d'approche


LFQA - Reims-Prunay

DERNIER METAR :
  • 251200Z AUTO 02007KT 340V070 9999 SCT037 22/12 Q1024

METARs EXPIRÉS :
  • 251130Z AUTO 03007KT 340V100 9999 SCT035 22/12 Q1024
  • 251100Z AUTO 04007KT 320V080 9999 BKN034 BKN220 21/12 Q1024
  • 251030Z AUTO 02007KT 310V090 9999 BKN033 20/12 Q1024
  • 251000Z AUTO 02007KT 320V110 9999 OVC032 20/12 Q1024
  • 250930Z AUTO 02006KT 350V110 9999 SCT029 19/12 Q1024

TAF N/A
Pas de NOTAMs connus pour ce terrain.



MET'MAP, la Météo Aéronautique d'un coup d'oeil ! - Copyright ORBIFLY Décembre 2007 - Disclaimer

ORBIFLY MET'MAP TEAM :

Programmation & Développement : Alexandra Zaïnal
Conception & Développement : Baudouin d'Aumeries
Co-Programmation & Développement : Marc-Olivier Méhu
Soutien technique & logistique : Manuel Goepfert

Contact : metmap@orbifly.com




SOURCES & CREDITS :

   NOAA